TimeEDT,TemperatureF,Dew PointF,Humidity,Sea Level PressureIn,VisibilityMPH,Wind Direction,Wind SpeedMPH,Gust SpeedMPH,PrecipitationIn,Events,Conditions,WindDirDegrees,DateUTC
12:52 AM,55.0,50.0,83,30.14,10.0,NE,10.4,-,N/A,,Overcast,40,2012-10-08 04:52:00
1:52 AM,55.0,50.0,83,30.14,10.0,NNE,11.5,-,N/A,,Overcast,30,2012-10-08 05:52:00
2:52 AM,55.0,48.9,80,30.12,10.0,NNE,11.5,-,N/A,,Overcast,30,2012-10-08 06:52:00
3:52 AM,54.0,48.0,80,30.11,10.0,NNE,11.5,-,N/A,,Overcast,30,2012-10-08 07:52:00
4:52 AM,54.0,48.0,80,30.12,10.0,NE,11.5,-,N/A,,Overcast,50,2012-10-08 08:52:00
5:52 AM,54.0,48.0,80,30.13,10.0,ENE,8.1,-,N/A,,Overcast,60,2012-10-08 09:52:00
6:52 AM,54.0,46.9,77,30.14,10.0,ENE,9.2,-,N/A,,Overcast,60,2012-10-08 10:52:00
7:52 AM,54.0,46.9,77,30.18,10.0,ENE,10.4,-,N/A,,Overcast,60,2012-10-08 11:52:00
8:52 AM,55.0,46.9,74,30.18,10.0,ENE,10.4,-,N/A,,Overcast,70,2012-10-08 12:52:00
9:21 AM,55.4,46.4,72,30.18,10.0,ENE,10.4,-,N/A,,Overcast,60,2012-10-08 13:21:00
9:52 AM,55.0,46.0,72,30.17,10.0,ENE,12.7,20.7,N/A,,Overcast,70,2012-10-08 13:52:00
10:52 AM,55.0,48.0,77,30.17,10.0,East,11.5,20.7,0.00,Rain,Light Rain,80,2012-10-08 14:52:00
11:42 AM,53.6,48.2,82,30.17,10.0,ENE,10.4,-,0.00,,Overcast,60,2012-10-08 15:42:00
12:27 PM,53.6,50.0,88,30.17,2.5,NNE,6.9,-,N/A,,Overcast,30,2012-10-08 16:27:00
12:33 PM,51.8,50.0,94,30.16,1.8,NNE,8.1,-,N/A,,Overcast,30,2012-10-08 16:33:00
12:52 PM,51.1,50.0,96,30.15,1.5,NNE,9.2,-,0.00,Rain,Light Rain,30,2012-10-08 16:52:00
1:25 PM,51.8,50.0,94,30.16,0.8,NNE,6.9,-,0.15,Rain-Thunderstorm,Heavy Thunderstorms and Rain,20,2012-10-08 17:25:00
1:35 PM,51.8,50.0,94,30.15,1.5,NNE,10.4,-,0.20,Rain-Thunderstorm,Thunderstorms and Rain,30,2012-10-08 17:35:00
1:39 PM,51.8,50.0,94,30.15,2.0,North,10.4,-,0.21,Rain,Rain,10,2012-10-08 17:39:00
1:49 PM,51.8,50.0,94,30.15,5.0,NNE,10.4,-,0.21,Rain,Light Rain,20,2012-10-08 17:49:00
1:52 PM,51.1,50.0,96,30.15,5.0,NNE,10.4,-,0.22,Rain,Light Rain,20,2012-10-08 17:52:00
2:11 PM,51.8,48.2,88,30.14,1.8,NNE,11.5,-,0.08,Rain,Heavy Rain,20,2012-10-08 18:11:00
2:23 PM,50.0,48.2,94,30.13,0.8,NNE,12.7,-,0.23,Rain,Heavy Rain,20,2012-10-08 18:23:00
2:28 PM,51.8,48.2,88,30.14,2.0,North,6.9,18.4,0.25,Rain,Light Rain,360,2012-10-08 18:28:00
2:45 PM,50.0,48.2,94,30.13,8.0,NNE,11.5,19.6,0.28,Rain,Light Rain,30,2012-10-08 18:45:00
2:52 PM,51.1,48.9,92,30.12,9.0,NNE,15.0,-,0.29,Rain,Light Rain,30,2012-10-08 18:52:00
3:01 PM,51.8,48.2,88,30.13,8.0,NNE,9.2,-,0.00,Rain,Light Rain,30,2012-10-08 19:01:00
3:23 PM,51.8,50.0,94,30.12,10.0,NNE,11.5,-,0.00,,Overcast,30,2012-10-08 19:23:00
3:38 PM,51.8,48.2,88,30.11,10.0,NNE,16.1,23.0,0.00,,Overcast,30,2012-10-08 19:38:00
3:45 PM,51.8,48.2,88,30.11,10.0,NE,15.0,-,0.00,,Overcast,40,2012-10-08 19:45:00
3:52 PM,51.1,48.0,89,30.12,10.0,NE,11.5,21.9,0.00,,Overcast,40,2012-10-08 19:52:00
4:37 PM,50.0,48.2,94,30.11,1.8,NNE,10.4,-,0.08,Rain,Heavy Rain,30,2012-10-08 20:37:00
4:52 PM,50.0,48.9,96,30.11,3.0,NNE,13.8,18.4,0.12,Rain,Light Rain,20,2012-10-08 20:52:00
5:21 PM,50.0,48.2,94,30.12,10.0,NNE,10.4,-,0.01,,Overcast,20,2012-10-08 21:21:00
5:52 PM,50.0,48.9,96,30.12,2.5,NNE,8.1,-,0.04,Rain,Light Rain,20,2012-10-08 21:52:00
6:16 PM,50.0,48.2,94,30.13,4.0,NNE,6.9,-,0.04,Rain,Light Rain,30,2012-10-08 22:16:00
6:23 PM,50.0,48.2,94,30.13,1.8,NNE,6.9,-,0.11,Rain,Heavy Rain,30,2012-10-08 22:23:00
6:32 PM,50.0,48.2,94,30.13,2.0,NE,9.2,-,0.12,Rain,Light Rain,40,2012-10-08 22:32:00
6:34 PM,50.0,48.2,94,30.13,3.0,NE,8.1,-,0.12,Rain,Light Rain,50,2012-10-08 22:34:00
6:42 PM,50.0,48.2,94,30.13,7.0,NNE,10.4,-,0.12,,Overcast,30,2012-10-08 22:42:00
6:52 PM,50.0,48.9,96,30.13,8.0,NNE,12.7,-,0.12,,Overcast,30,2012-10-08 22:52:00
7:35 PM,50.0,48.2,94,30.13,9.0,North,8.1,-,0.00,Rain,Light Rain,10,2012-10-08 23:35:00
7:43 PM,50.0,48.2,94,30.13,6.0,North,8.1,-,0.00,Rain,Light Rain,10,2012-10-08 23:43:00
8:52 PM,50.0,48.9,96,30.13,9.0,North,6.9,-,0.01,,Overcast,10,2012-10-09 00:52:00
9:52 PM,50.0,48.9,96,30.13,10.0,NNE,9.2,-,N/A,,Overcast,20,2012-10-09 01:52:00
10:52 PM,51.1,50.0,96,30.14,5.0,North,6.9,-,N/A,,Overcast,10,2012-10-09 02:52:00
11:52 PM,50.0,48.9,96,30.14,5.0,North,6.9,-,N/A,,Overcast,360,2012-10-09 03:52:00